Tabellarische Übersicht vom Montag, den 28.11.2022

Oder anderes Datum wählen:






max 8,2°C 98,0% 7,9°C 1012,2hPa 8,0°C 26,3km/h (4Bft) 11,5km/h 284° (W) ∑6,6l/m² 8,000klx ∑518,0min
min 6,2°C 83,0% 4,3°C 1009,2hPa -4,0°C 2,9km/h (1Bft) 1,5km/h 148° (SO) ∑6,6l/m² 0,000klx ∑518,0min
Ø 7,1°C 93,0% 6,0°C 1010,3hPa 4,0°C 10,7km/h (2Bft) 4,8km/h 198° (S) ∑6,6l/m² 3,000klx ∑518,0min
Zeit Temperatur Luftfeuchte Taupunkt Luftdruck Windchill Windböen Windgeschwindigkeit Windrichtung Regen Helligkeit Regenzeit
22:30 8,2°C 98,1% 7,9°C 1012,2hPa 8,2°C 8,6km/h (2Bft) 3,5km/h 243° (SW) 0,1l/m² 0,000klx 5,0min
22:25 8,2°C 98,1% 7,9°C 1012,2hPa 8,2°C 11,9km/h (2Bft) 4,7km/h 232° (SW) 0,1l/m² 0,000klx 5,0min
22:20 8,2°C 98,1% 7,9°C 1012,2hPa 8,2°C 8,6km/h (2Bft) 3,3km/h 241° (SW) 0,1l/m² 0,000klx 5,0min
22:15 8,2°C 98,1% 7,9°C 1012,2hPa 8,2°C 8,6km/h (2Bft) 4,6km/h 231° (SW) 0,0l/m² 0,000klx 5,0min
22:10 8,2°C 98,1% 7,9°C 1012,2hPa 8,2°C 9,0km/h (2Bft) 4,5km/h 228° (SW) 0,0l/m² 0,000klx 5,0min
22:05 8,2°C 98,1% 7,9°C 1012,2hPa 8,2°C 5,8km/h (1Bft) 3,0km/h 239° (SW) 0,0l/m² 0,000klx 5,0min
22:00 8,2°C 98,1% 7,9°C 1012,2hPa 8,2°C 7,9km/h (2Bft) 4,3km/h 242° (SW) 0,0l/m² 0,000klx 5,0min
21:55 8,2°C 98,1% 7,9°C 1012,2hPa 8,2°C 7,9km/h (2Bft) 3,1km/h 235° (SW) 0,0l/m² 0,000klx 5,0min
21:50 8,2°C 98,1% 7,9°C 1012,1hPa 8,2°C 8,6km/h (2Bft) 4,2km/h 226° (SW) 0,0l/m² 0,000klx 5,0min
21:45 8,2°C 98,1% 7,9°C 1012,1hPa 8,2°C 8,3km/h (2Bft) 3,0km/h 236° (SW) 0,0l/m² 0,000klx 5,0min
21:40 8,2°C 98,1% 7,9°C 1012,1hPa 8,2°C 8,6km/h (2Bft) 3,5km/h 232° (SW) 0,0l/m² 0,000klx 5,0min
21:35 8,2°C 98,1% 7,9°C 1012,0hPa 8,2°C 7,6km/h (2Bft) 3,6km/h 225° (SW) 0,0l/m² 0,000klx 5,0min
21:30 8,2°C 98,1% 7,9°C 1012,0hPa 8,2°C 7,2km/h (2Bft) 3,3km/h 232° (SW) 0,0l/m² 0,000klx 5,0min
21:25 8,2°C 98,1% 7,9°C 1012,0hPa 8,2°C 7,2km/h (2Bft) 3,4km/h 223° (SW) 0,0l/m² 0,000klx 5,0min
21:20 8,1°C 98,1% 7,9°C 1012,0hPa 8,1°C 9,4km/h (2Bft) 4,4km/h 232° (SW) 0,0l/m² 0,000klx 5,0min
21:15 8,1°C 98,1% 7,8°C 1011,9hPa 8,1°C 10,4km/h (2Bft) 5,5km/h 230° (SW) 0,0l/m² 0,000klx 5,0min
21:10 8,1°C 98,1% 7,8°C 1011,9hPa 8,1°C 6,5km/h (2Bft) 3,8km/h 232° (SW) 0,0l/m² 0,000klx 5,0min
21:05 8,1°C 98,1% 7,8°C 1011,9hPa 8,1°C 9,4km/h (2Bft) 4,4km/h 232° (SW) 0,0l/m² 0,000klx 5,0min
21:00 8,1°C 98,1% 7,8°C 1011,9hPa 8,1°C 8,3km/h (2Bft) 3,9km/h 230° (SW) 0,0l/m² 0,000klx 5,0min
20:55 8,1°C 98,1% 7,8°C 1011,9hPa 8,1°C 6,5km/h (2Bft) 3,0km/h 236° (SW) 0,0l/m² 0,000klx 5,0min
20:50 8,0°C 98,1% 7,7°C 1011,8hPa 8,0°C 6,5km/h (2Bft) 3,3km/h 236° (SW) 0,0l/m² 0,000klx 5,0min
20:45 8,0°C 98,1% 7,7°C 1011,8hPa 8,0°C 6,1km/h (2Bft) 3,6km/h 230° (SW) 0,0l/m² 0,000klx 5,0min
20:40 8,0°C 98,1% 7,7°C 1011,8hPa 8,0°C 6,8km/h (2Bft) 4,0km/h 233° (SW) 0,0l/m² 0,000klx 5,0min
20:35 8,0°C 98,1% 7,7°C 1011,7hPa 8,0°C 7,2km/h (2Bft) 3,0km/h 227° (SW) 0,0l/m² 0,000klx 5,0min
20:30 8,0°C 98,1% 7,7°C 1011,7hPa 8,0°C 5,0km/h (1Bft) 2,8km/h 229° (SW) 0,0l/m² 0,000klx 5,0min
20:25 7,9°C 98,0% 7,6°C 1011,7hPa 7,9°C 6,1km/h (2Bft) 2,9km/h 234° (SW) 0,0l/m² 0,000klx 5,0min
20:20 7,9°C 98,0% 7,6°C 1011,7hPa 7,9°C 8,6km/h (2Bft) 3,3km/h 228° (SW) 0,0l/m² 0,000klx 5,0min
20:15 7,9°C 98,0% 7,6°C 1011,7hPa 7,9°C 5,8km/h (1Bft) 2,6km/h 222° (SW) 0,0l/m² 0,000klx 5,0min
20:10 7,9°C 98,0% 7,6°C 1011,7hPa 7,9°C 6,8km/h (2Bft) 3,4km/h 235° (SW) 0,0l/m² 0,000klx 5,0min
20:05 7,9°C 98,0% 7,6°C 1011,7hPa 7,9°C 6,5km/h (2Bft) 3,4km/h 220° (SW) 0,1l/m² 0,000klx 5,0min
20:00 7,9°C 98,0% 7,5°C 1011,6hPa 7,9°C 6,5km/h (2Bft) 3,3km/h 225° (SW) 0,1l/m² 0,000klx 5,0min
19:55 7,8°C 97,9% 7,5°C 1011,6hPa 7,8°C 9,7km/h (2Bft) 3,8km/h 238° (SW) 0,1l/m² 0,000klx 5,0min
19:50 7,8°C 97,9% 7,5°C 1011,6hPa 7,8°C 5,8km/h (1Bft) 3,1km/h 227° (SW) 0,0l/m² 0,000klx 2,0min
19:45 7,8°C 97,9% 7,5°C 1011,5hPa 7,8°C 5,4km/h (1Bft) 2,8km/h 240° (SW) 0,0l/m² 0,000klx 0,0min
19:40 7,8°C 97,9% 7,5°C 1011,5hPa 7,8°C 6,1km/h (2Bft) 2,9km/h 238° (SW) 0,0l/m² 0,000klx 0,0min
19:35 7,8°C 97,9% 7,4°C 1011,5hPa 7,8°C 6,1km/h (2Bft) 2,9km/h 232° (SW) 0,0l/m² 0,000klx 0,0min
19:30 7,8°C 97,8% 7,4°C 1011,5hPa 7,8°C 5,0km/h (1Bft) 2,9km/h 233° (SW) 0,0l/m² 0,000klx 0,0min
19:25 7,7°C 97,8% 7,4°C 1011,4hPa 7,7°C 5,8km/h (1Bft) 2,9km/h 232° (SW) 0,0l/m² 0,000klx 0,0min
19:20 7,7°C 97,8% 7,4°C 1011,3hPa 7,7°C 5,4km/h (1Bft) 2,5km/h 233° (SW) 0,0l/m² 0,000klx 0,0min
19:15 7,7°C 97,8% 7,4°C 1011,3hPa 7,7°C 5,0km/h (1Bft) 2,7km/h 223° (SW) 0,0l/m² 0,000klx 0,0min
19:10 7,7°C 97,8% 7,3°C 1011,3hPa 7,7°C 5,4km/h (1Bft) 2,5km/h 225° (SW) 0,0l/m² 0,000klx 0,0min
19:05 7,7°C 97,7% 7,3°C 1011,4hPa 7,7°C 4,7km/h (1Bft) 2,1km/h 215° (SW) 0,0l/m² 0,000klx 0,0min
19:00 7,6°C 97,7% 7,3°C 1011,4hPa 7,6°C 4,0km/h (1Bft) 2,1km/h 233° (SW) 0,0l/m² 0,000klx 0,0min
18:55 7,6°C 97,7% 7,3°C 1011,3hPa 7,6°C 5,0km/h (1Bft) 2,4km/h 212° (SW) 0,0l/m² 0,000klx 0,0min
18:50 7,6°C 97,6% 7,2°C 1011,3hPa 7,6°C 2,9km/h (1Bft) 1,5km/h 212° (SW) 0,0l/m² 0,000klx 0,0min
18:45 7,6°C 97,6% 7,2°C 1011,2hPa 7,6°C 4,3km/h (1Bft) 1,9km/h 207° (SW) 0,0l/m² 0,000klx 0,0min
18:40 7,6°C 97,6% 7,2°C 1011,2hPa 7,6°C 4,3km/h (1Bft) 2,0km/h 204° (SW) 0,0l/m² 0,000klx 0,0min
18:35 7,6°C 97,5% 7,2°C 1011,1hPa 7,6°C 4,0km/h (1Bft) 2,0km/h 192° (S) 0,0l/m² 0,000klx 0,0min
18:30 7,5°C 97,5% 7,2°C 1011,1hPa 7,5°C 4,3km/h (1Bft) 1,9km/h 174° (S) 0,0l/m² 0,000klx 0,0min
18:25 7,5°C 97,4% 7,2°C 1011,1hPa 7,5°C 3,6km/h (1Bft) 1,9km/h 183° (S) 0,0l/m² 0,000klx 0,0min
18:20 7,5°C 97,4% 7,1°C 1011,1hPa 7,5°C 4,3km/h (1Bft) 2,3km/h 186° (S) 0,0l/m² 0,000klx 0,0min
18:15 7,5°C 97,4% 7,1°C 1011,1hPa 7,5°C 5,4km/h (1Bft) 2,4km/h 190° (S) 0,0l/m² 0,000klx 0,0min
18:10 7,5°C 97,3% 7,1°C 1011,0hPa 7,5°C 4,7km/h (1Bft) 2,6km/h 181° (S) 0,0l/m² 0,000klx 0,0min
18:05 7,5°C 97,2% 7,1°C 1010,9hPa 7,5°C 4,0km/h (1Bft) 2,1km/h 198° (S) 0,0l/m² 0,000klx 0,0min
18:00 7,5°C 97,2% 7,1°C 1010,9hPa 7,5°C 4,0km/h (1Bft) 2,1km/h 188° (S) 0,0l/m² 0,000klx 0,0min
17:55 7,5°C 97,1% 7,1°C 1010,9hPa 7,5°C 4,3km/h (1Bft) 2,3km/h 196° (S) 0,0l/m² 0,000klx 0,0min
17:50 7,5°C 97,0% 7,0°C 1010,9hPa 7,5°C 4,0km/h (1Bft) 2,0km/h 204° (SW) 0,0l/m² 0,000klx 0,0min
17:45 7,5°C 97,0% 7,0°C 1011,0hPa 7,5°C 4,7km/h (1Bft) 2,2km/h 195° (S) 0,0l/m² 0,000klx 0,0min
17:40 7,5°C 97,0% 7,0°C 1010,9hPa 7,5°C 5,4km/h (1Bft) 2,7km/h 187° (S) 0,0l/m² 0,000klx 0,0min
17:35 7,5°C 96,9% 7,0°C 1010,9hPa 7,5°C 4,7km/h (1Bft) 2,4km/h 181° (S) 0,0l/m² 0,000klx 0,0min
17:30 7,4°C 96,9% 7,0°C 1010,9hPa 7,4°C 4,0km/h (1Bft) 2,0km/h 179° (S) 0,0l/m² 0,000klx 0,0min
17:25 7,4°C 96,8% 7,0°C 1010,8hPa 7,4°C 4,0km/h (1Bft) 1,9km/h 162° (S) 0,0l/m² 0,000klx 0,0min
17:20 7,4°C 96,8% 6,9°C 1010,8hPa 7,4°C 3,6km/h (1Bft) 1,9km/h 211° (SW) 0,0l/m² 0,000klx 0,0min
17:15 7,4°C 96,7% 6,9°C 1010,7hPa 7,4°C 5,0km/h (1Bft) 2,4km/h 198° (S) 0,0l/m² 0,000klx 0,0min
17:10 7,4°C 96,7% 6,9°C 1010,6hPa 7,4°C 5,4km/h (1Bft) 2,8km/h 177° (S) 0,0l/m² 0,001klx 0,0min
17:05 7,4°C 96,7% 6,9°C 1010,6hPa 7,4°C 5,0km/h (1Bft) 2,6km/h 161° (S) 0,0l/m² 0,002klx 0,0min
17:00 7,4°C 96,6% 6,9°C 1010,6hPa 7,4°C 5,8km/h (1Bft) 3,4km/h 184° (S) 0,0l/m² 0,004klx 0,0min
16:55 7,4°C 96,6% 6,9°C 1010,6hPa 7,4°C 5,8km/h (1Bft) 3,1km/h 201° (S) 0,0l/m² 0,008klx 0,0min
16:50 7,4°C 96,5% 6,8°C 1010,6hPa 7,4°C 6,8km/h (2Bft) 2,9km/h 181° (S) 0,0l/m² 0,017klx 0,0min
16:45 7,4°C 96,5% 6,8°C 1010,6hPa 7,4°C 5,8km/h (1Bft) 2,7km/h 186° (S) 0,0l/m² 0,039klx 0,0min
16:40 7,4°C 96,4% 6,8°C 1010,5hPa 7,4°C 4,7km/h (1Bft) 2,4km/h 173° (S) 0,0l/m² 0,074klx 0,0min
16:35 7,4°C 96,5% 6,8°C 1010,5hPa 7,4°C 4,3km/h (1Bft) 2,5km/h 197° (S) 0,0l/m² 0,112klx 0,0min
16:30 7,4°C 96,5% 6,8°C 1010,5hPa 7,4°C 5,8km/h (1Bft) 2,6km/h 191° (S) 0,0l/m² 0,190klx 0,0min
16:25 7,4°C 96,5% 6,9°C 1010,4hPa 7,4°C 4,7km/h (1Bft) 1,8km/h 170° (S) 0,0l/m² 0,284klx 0,0min
16:20 7,4°C 96,5% 6,9°C 1010,4hPa 7,4°C 6,5km/h (2Bft) 3,1km/h 171° (S) 0,0l/m² 0,382klx 0,0min
16:15 7,4°C 96,4% 6,9°C 1010,3hPa 7,4°C 5,4km/h (1Bft) 2,7km/h 177° (S) 0,0l/m² 0,453klx 0,0min
16:10 7,4°C 96,3% 6,8°C 1010,3hPa 7,4°C 4,0km/h (1Bft) 2,2km/h 189° (S) 0,0l/m² 0,679klx 0,0min
16:05 7,4°C 96,3% 6,8°C 1010,3hPa 7,4°C 5,0km/h (1Bft) 2,3km/h 175° (S) 0,0l/m² 0,882klx 0,0min
16:00 7,4°C 96,2% 6,8°C 1010,3hPa 7,4°C 4,0km/h (1Bft) 2,0km/h 195° (S) 0,0l/m² 0,842klx 0,0min
15:55 7,4°C 96,1% 6,8°C 1010,3hPa 7,4°C 5,4km/h (1Bft) 2,8km/h 195° (S) 0,0l/m² 0,946klx 0,0min
15:50 7,4°C 96,0% 6,8°C 1010,2hPa 7,4°C 4,7km/h (1Bft) 2,5km/h 195° (S) 0,0l/m² 1,575klx 0,0min
15:45 7,4°C 96,1% 6,8°C 1010,2hPa 7,4°C 5,4km/h (1Bft) 2,6km/h 180° (S) 0,0l/m² 1,922klx 0,0min
15:40 7,4°C 96,1% 6,8°C 1010,2hPa 7,4°C 5,8km/h (1Bft) 3,4km/h 182° (S) 0,0l/m² 2,022klx 0,0min
15:35 7,4°C 95,9% 6,8°C 1010,1hPa 7,4°C 6,1km/h (2Bft) 3,2km/h 213° (SW) 0,0l/m² 1,861klx 0,0min
15:30 7,4°C 95,9% 6,8°C 1010,1hPa 7,4°C 6,5km/h (2Bft) 2,6km/h 202° (S) 0,0l/m² 1,921klx 0,0min
15:25 7,4°C 95,8% 6,8°C 1010,0hPa 7,4°C 5,4km/h (1Bft) 2,7km/h 172° (S) 0,0l/m² 2,287klx 0,0min
15:20 7,4°C 95,8% 6,8°C 1010,0hPa 7,4°C 6,1km/h (2Bft) 2,8km/h 205° (SW) 0,0l/m² 2,700klx 0,0min
15:15 7,4°C 95,7% 6,7°C 1010,0hPa 7,4°C 5,8km/h (1Bft) 2,9km/h 179° (S) 0,0l/m² 2,877klx 0,0min
15:10 7,4°C 95,7% 6,7°C 1009,9hPa 7,4°C 6,5km/h (2Bft) 2,8km/h 176° (S) 0,0l/m² 2,589klx 0,0min
15:05 7,3°C 95,7% 6,7°C 1010,0hPa 7,3°C 6,1km/h (2Bft) 3,1km/h 175° (S) 0,0l/m² 2,723klx 0,0min
15:00 7,3°C 95,7% 6,7°C 1010,0hPa 7,3°C 5,8km/h (1Bft) 3,0km/h 172° (S) 0,0l/m² 2,694klx 0,0min
14:55 7,3°C 95,6% 6,6°C 1010,0hPa 7,3°C 6,1km/h (2Bft) 2,8km/h 172° (S) 0,0l/m² 2,532klx 0,0min
14:50 7,3°C 95,6% 6,6°C 1010,0hPa 7,3°C 5,8km/h (1Bft) 3,4km/h 188° (S) 0,0l/m² 2,295klx 1,7min
14:45 7,3°C 95,4% 6,6°C 1010,0hPa 7,3°C 5,0km/h (1Bft) 2,9km/h 199° (S) 0,0l/m² 2,792klx 5,0min
14:40 7,3°C 95,3% 6,6°C 1009,9hPa 7,3°C 5,4km/h (1Bft) 2,6km/h 202° (S) 0,0l/m² 3,633klx 5,0min
14:35 7,3°C 95,1% 6,5°C 1009,9hPa 7,3°C 6,5km/h (2Bft) 3,0km/h 203° (SW) 0,0l/m² 4,178klx 5,0min
14:30 7,3°C 95,1% 6,6°C 1009,8hPa 7,3°C 6,1km/h (2Bft) 3,3km/h 171° (S) 0,1l/m² 4,858klx 5,0min
14:25 7,3°C 94,9% 6,5°C 1009,8hPa 7,3°C 6,8km/h (2Bft) 3,1km/h 181° (S) 0,1l/m² 4,905klx 5,0min
14:20 7,3°C 94,6% 6,4°C 1009,8hPa 7,3°C 8,3km/h (2Bft) 3,9km/h 182° (S) 0,1l/m² 5,744klx 5,0min
14:15 7,2°C 94,5% 6,4°C 1009,9hPa 7,2°C 8,6km/h (2Bft) 3,7km/h 189° (S) 0,1l/m² 5,389klx 5,0min
14:10 7,2°C 94,4% 6,4°C 1009,9hPa 7,2°C 7,6km/h (2Bft) 3,5km/h 209° (SW) 0,1l/m² 4,867klx 5,0min
14:05 7,2°C 94,3% 6,3°C 1009,9hPa 7,2°C 13,3km/h (3Bft) 6,3km/h 188° (S) 0,1l/m² 5,189klx 5,0min
14:00 7,2°C 94,1% 6,3°C 1009,9hPa 7,2°C 10,4km/h (2Bft) 5,2km/h 189° (S) 0,1l/m² 4,980klx 5,0min
13:55 7,2°C 94,3% 6,3°C 1009,9hPa 7,2°C 10,8km/h (2Bft) 5,2km/h 187° (S) 0,1l/m² 4,537klx 5,0min
13:50 7,2°C 94,3% 6,3°C 1010,0hPa 7,2°C 10,4km/h (2Bft) 5,2km/h 185° (S) 0,1l/m² 4,037klx 5,0min
13:45 7,2°C 94,0% 6,3°C 1010,0hPa 7,2°C 10,1km/h (2Bft) 5,2km/h 191° (S) 0,1l/m² 3,983klx 5,0min
13:40 7,2°C 93,8% 6,3°C 1010,0hPa 7,2°C 11,5km/h (2Bft) 5,2km/h 186° (S) 0,1l/m² 3,957klx 5,0min
13:35 7,2°C 93,6% 6,3°C 1010,0hPa 7,2°C 10,4km/h (2Bft) 5,0km/h 197° (S) 0,1l/m² 3,795klx 5,0min
13:30 7,2°C 93,7% 6,3°C 1010,0hPa 7,2°C 11,9km/h (2Bft) 6,0km/h 187° (S) 0,1l/m² 3,968klx 5,0min
13:25 7,3°C 93,4% 6,3°C 1009,9hPa 7,3°C 10,4km/h (2Bft) 5,4km/h 189° (S) 0,1l/m² 4,126klx 5,0min
13:20 7,3°C 92,8% 6,2°C 1009,9hPa 7,3°C 8,3km/h (2Bft) 4,9km/h 194° (S) 0,1l/m² 4,205klx 5,0min
13:15 7,3°C 92,6% 6,1°C 1009,9hPa 7,3°C 10,1km/h (2Bft) 4,5km/h 181° (S) 0,1l/m² 4,292klx 5,0min
13:10 7,3°C 92,7% 6,2°C 1009,9hPa 7,3°C 9,7km/h (2Bft) 4,7km/h 183° (S) 0,0l/m² 4,463klx 5,0min
13:05 7,3°C 92,6% 6,2°C 1009,8hPa 7,3°C 9,7km/h (2Bft) 5,6km/h 184° (S) 0,1l/m² 4,873klx 5,0min
13:00 7,3°C 92,3% 6,2°C 1009,8hPa 7,3°C 9,7km/h (2Bft) 5,1km/h 192° (S) 0,0l/m² 4,980klx 5,0min
12:55 7,4°C 92,6% 6,3°C 1009,8hPa 7,4°C 10,8km/h (2Bft) 4,7km/h 181° (S) 0,1l/m² 5,294klx 5,0min
12:50 7,4°C 92,1% 6,2°C 1009,8hPa 7,4°C 11,5km/h (2Bft) 6,0km/h 195° (S) 0,1l/m² 5,443klx 5,0min
12:45 7,5°C 92,1% 6,3°C 1009,8hPa 7,5°C 9,4km/h (2Bft) 4,7km/h 179° (S) 0,0l/m² 5,806klx 5,0min
12:40 7,5°C 91,6% 6,2°C 1009,8hPa 7,5°C 9,0km/h (2Bft) 5,0km/h 167° (S) 0,0l/m² 6,915klx 5,0min
12:35 7,5°C 91,6% 6,2°C 1009,8hPa 7,5°C 10,8km/h (2Bft) 4,5km/h 175° (S) 0,0l/m² 7,583klx 5,0min
12:30 7,4°C 90,9% 6,0°C 1009,8hPa 7,4°C 9,0km/h (2Bft) 4,6km/h 181° (S) 0,0l/m² 7,667klx 5,0min
12:25 7,4°C 90,5% 5,9°C 1009,8hPa 7,4°C 11,2km/h (2Bft) 5,7km/h 191° (S) 0,0l/m² 7,077klx 0,7min
12:20 7,4°C 90,4% 5,9°C 1009,8hPa 7,4°C 11,2km/h (2Bft) 6,1km/h 175° (S) 0,0l/m² 6,108klx 0,0min
12:15 7,4°C 90,7% 6,0°C 1009,9hPa 7,4°C 8,6km/h (2Bft) 4,6km/h 189° (S) 0,0l/m² 5,864klx 0,0min
12:10 7,4°C 90,5% 5,9°C 1009,9hPa 7,4°C 12,2km/h (3Bft) 5,2km/h 176° (S) 0,0l/m² 5,422klx 0,0min
12:05 7,4°C 89,1% 5,8°C 1009,9hPa 7,4°C 12,6km/h (3Bft) 5,6km/h 182° (S) 0,0l/m² 4,823klx 0,0min
12:00 7,5°C 88,4% 5,7°C 1009,9hPa 7,3°C 15,1km/h (3Bft) 6,7km/h 193° (S) 0,0l/m² 5,582klx 0,0min
11:55 7,5°C 88,3% 5,7°C 1009,9hPa 7,5°C 12,2km/h (3Bft) 6,1km/h 195° (S) 0,0l/m² 6,225klx 0,0min
11:50 7,4°C 88,6% 5,7°C 1009,8hPa 7,4°C 14,0km/h (3Bft) 6,2km/h 191° (S) 0,0l/m² 6,592klx 0,0min
11:45 7,4°C 88,8% 5,7°C 1009,9hPa 6,5°C 12,6km/h (3Bft) 7,6km/h 185° (S) 0,0l/m² 6,615klx 0,0min
11:40 7,4°C 88,5% 5,6°C 1009,9hPa 7,4°C 14,0km/h (3Bft) 5,6km/h 192° (S) 0,0l/m² 6,829klx 0,0min
11:35 7,4°C 89,5% 5,7°C 1009,9hPa 7,4°C 8,3km/h (2Bft) 3,7km/h 203° (SW) 0,0l/m² 6,669klx 0,0min
11:30 7,3°C 89,5% 5,7°C 1009,9hPa 7,3°C 11,5km/h (2Bft) 4,6km/h 196° (S) 0,0l/m² 6,806klx 0,0min
11:25 7,3°C 89,8% 5,7°C 1009,9hPa 7,3°C 10,8km/h (2Bft) 4,6km/h 199° (S) 0,0l/m² 6,882klx 0,0min
11:20 7,2°C 89,7% 5,6°C 1009,9hPa 7,2°C 13,0km/h (3Bft) 6,0km/h 202° (S) 0,0l/m² 6,460klx 0,0min
11:15 7,2°C 89,6% 5,6°C 1010,0hPa 7,2°C 12,6km/h (3Bft) 5,6km/h 203° (SW) 0,0l/m² 6,561klx 0,0min
11:10 7,3°C 89,6% 5,7°C 1010,0hPa 7,3°C 12,2km/h (3Bft) 4,9km/h 204° (SW) 0,0l/m² 5,993klx 0,0min
11:05 7,3°C 88,3% 5,4°C 1010,0hPa 7,3°C 15,8km/h (3Bft) 6,1km/h 185° (S) 0,0l/m² 5,993klx 0,0min
11:00 7,3°C 87,9% 5,4°C 1010,0hPa 7,3°C 16,2km/h (3Bft) 6,3km/h 191° (S) 0,0l/m² 5,267klx 0,0min
10:55 7,2°C 87,5% 5,3°C 1010,0hPa 7,2°C 11,5km/h (2Bft) 5,0km/h 203° (SW) 0,0l/m² 4,960klx 0,0min
10:50 7,2°C 87,4% 5,3°C 1010,0hPa 7,2°C 12,6km/h (3Bft) 6,3km/h 204° (SW) 0,0l/m² 4,807klx 0,0min
10:45 7,2°C 86,9% 5,2°C 1010,0hPa 5,3°C 19,4km/h (3Bft) 8,8km/h 191° (S) 0,0l/m² 4,652klx 0,0min
10:40 7,2°C 87,8% 5,3°C 1009,9hPa 6,7°C 15,5km/h (3Bft) 7,0km/h 197° (S) 0,0l/m² 3,897klx 0,0min
10:35 7,3°C 86,3% 5,1°C 1009,9hPa 7,3°C 11,5km/h (2Bft) 4,2km/h 198° (S) 0,0l/m² 4,048klx 0,0min
10:30 7,3°C 85,4% 5,0°C 1009,9hPa 7,3°C 9,7km/h (2Bft) 5,1km/h 215° (SW) 0,0l/m² 4,006klx 0,0min
10:25 7,3°C 85,5% 5,0°C 1009,8hPa 7,1°C 19,1km/h (3Bft) 6,7km/h 192° (S) 0,0l/m² 4,202klx 0,0min
10:20 7,3°C 85,0% 4,9°C 1009,8hPa 6,3°C 16,2km/h (3Bft) 7,6km/h 192° (S) 0,0l/m² 3,652klx 0,0min
10:15 7,3°C 84,9% 4,9°C 1009,7hPa 6,8°C 14,8km/h (3Bft) 7,0km/h 190° (S) 0,0l/m² 3,646klx 0,0min
10:10 7,2°C 85,2% 4,9°C 1009,6hPa 5,8°C 16,6km/h (3Bft) 8,2km/h 202° (S) 0,0l/m² 4,017klx 0,0min
10:05 7,2°C 84,9% 4,8°C 1009,6hPa 7,2°C 13,7km/h (3Bft) 6,3km/h 192° (S) 0,0l/m² 3,725klx 0,0min
10:00 7,2°C 84,8% 4,8°C 1009,6hPa 7,2°C 13,7km/h (3Bft) 4,8km/h 197° (S) 0,0l/m² 3,332klx 0,0min
09:55 7,1°C 85,0% 4,7°C 1009,7hPa 6,5°C 15,1km/h (3Bft) 7,1km/h 196° (S) 0,0l/m² 2,832klx 0,0min
09:50 7,0°C 86,3% 4,9°C 1009,6hPa 7,0°C 11,9km/h (2Bft) 4,1km/h 214° (SW) 0,0l/m² 2,656klx 0,0min
09:45 7,0°C 85,6% 4,8°C 1009,6hPa 7,0°C 17,6km/h (3Bft) 5,7km/h 192° (S) 0,0l/m² 2,532klx 0,0min
09:40 7,0°C 84,7% 4,6°C 1009,6hPa 7,0°C 13,7km/h (3Bft) 5,9km/h 198° (S) 0,0l/m² 2,624klx 0,0min
09:35 7,0°C 84,9% 4,6°C 1009,6hPa 6,9°C 15,1km/h (3Bft) 6,5km/h 206° (SW) 0,0l/m² 2,430klx 0,0min
09:30 7,0°C 85,0% 4,6°C 1009,6hPa 7,0°C 13,3km/h (3Bft) 5,2km/h 195° (S) 0,0l/m² 2,088klx 0,0min
09:25 7,0°C 83,9% 4,5°C 1009,6hPa 6,7°C 16,2km/h (3Bft) 6,8km/h 187° (S) 0,0l/m² 1,833klx 0,0min
09:20 7,0°C 83,4% 4,4°C 1009,5hPa 5,9°C 14,4km/h (3Bft) 7,8km/h 188° (S) 0,0l/m² 1,816klx 0,0min
09:15 7,0°C 83,7% 4,4°C 1009,6hPa 6,2°C 16,9km/h (3Bft) 7,4km/h 189° (S) 0,0l/m² 1,460klx 0,0min
09:10 7,0°C 84,2% 4,5°C 1009,6hPa 6,0°C 17,3km/h (3Bft) 7,7km/h 185° (S) 0,0l/m² 1,166klx 0,0min
09:05 6,9°C 84,3% 4,5°C 1009,6hPa 6,0°C 15,8km/h (3Bft) 7,6km/h 193° (S) 0,0l/m² 1,500klx 0,0min
09:00 6,9°C 85,0% 4,5°C 1009,5hPa 6,9°C 13,0km/h (3Bft) 6,0km/h 183° (S) 0,0l/m² 1,984klx 0,0min
08:55 6,8°C 85,1% 4,5°C 1009,5hPa 6,8°C 11,2km/h (2Bft) 4,8km/h 188° (S) 0,0l/m² 1,787klx 0,0min
08:50 6,8°C 85,2% 4,5°C 1009,5hPa 6,8°C 10,1km/h (2Bft) 4,8km/h 190° (S) 0,0l/m² 1,389klx 0,0min
08:45 6,8°C 84,8% 4,4°C 1009,5hPa 6,8°C 6,8km/h (2Bft) 3,7km/h 163° (S) 0,0l/m² 0,984klx 0,0min
08:40 6,8°C 84,8% 4,4°C 1009,5hPa 6,8°C 10,4km/h (2Bft) 4,9km/h 188° (S) 0,0l/m² 0,968klx 0,0min
08:35 6,6°C 86,3% 4,5°C 1009,5hPa 6,6°C 12,2km/h (3Bft) 5,5km/h 183° (S) 0,0l/m² 0,918klx 0,0min
08:30 6,5°C 87,2% 4,5°C 1009,5hPa 6,5°C 10,8km/h (2Bft) 4,8km/h 197° (S) 0,0l/m² 0,792klx 0,0min
08:25 6,5°C 87,7% 4,6°C 1009,4hPa 6,5°C 7,6km/h (2Bft) 3,7km/h 226° (SW) 0,0l/m² 0,583klx 0,0min
08:20 6,6°C 86,1% 4,5°C 1009,3hPa 6,6°C 13,7km/h (3Bft) 5,4km/h 182° (S) 0,0l/m² 0,383klx 0,0min
08:15 6,6°C 86,2% 4,4°C 1009,3hPa 6,6°C 10,1km/h (2Bft) 4,8km/h 182° (S) 0,0l/m² 0,275klx 0,0min
08:10 6,5°C 86,4% 4,4°C 1009,3hPa 6,5°C 8,3km/h (2Bft) 3,7km/h 171° (S) 0,0l/m² 0,203klx 0,0min
08:05 6,5°C 87,3% 4,5°C 1009,3hPa 6,5°C 7,2km/h (2Bft) 3,4km/h 182° (S) 0,0l/m² 0,137klx 0,0min
08:00 6,5°C 87,2% 4,5°C 1009,2hPa 6,5°C 10,8km/h (2Bft) 4,7km/h 182° (S) 0,0l/m² 0,076klx 0,0min
07:55 6,5°C 87,5% 4,6°C 1009,2hPa 6,5°C 13,3km/h (3Bft) 4,8km/h 190° (S) 0,0l/m² 0,037klx 0,0min
07:50 6,6°C 87,7% 4,7°C 1009,2hPa 6,6°C 10,4km/h (2Bft) 4,1km/h 190° (S) 0,0l/m² 0,017klx 0,0min
07:45 6,5°C 87,7% 4,7°C 1009,2hPa 6,5°C 13,7km/h (3Bft) 6,3km/h 191° (S) 0,0l/m² 0,007klx 0,0min
07:40 6,5°C 88,3% 4,7°C 1009,2hPa 6,5°C 11,5km/h (2Bft) 4,5km/h 172° (S) 0,0l/m² 0,003klx 0,0min
07:35 6,6°C 88,2% 4,7°C 1009,2hPa 6,6°C 10,4km/h (2Bft) 4,5km/h 171° (S) 0,0l/m² 0,001klx 0,0min
07:30 6,6°C 87,9% 4,8°C 1009,2hPa 6,6°C 11,5km/h (2Bft) 4,8km/h 190° (S) 0,0l/m² 0,001klx 0,0min
07:25 6,6°C 87,8% 4,7°C 1009,3hPa 6,6°C 10,8km/h (2Bft) 4,7km/h 214° (SW) 0,0l/m² 0,000klx 0,0min
07:20 6,5°C 89,1% 4,8°C 1009,2hPa 6,5°C 9,0km/h (2Bft) 4,0km/h 209° (SW) 0,0l/m² 0,000klx 0,0min
07:15 6,5°C 89,4% 4,9°C 1009,3hPa 6,5°C 7,2km/h (2Bft) 3,6km/h 200° (S) 0,0l/m² 0,000klx 0,0min
07:10 6,7°C 88,1% 4,8°C 1009,3hPa 6,7°C 8,6km/h (2Bft) 3,5km/h 225° (SW) 0,0l/m² 0,000klx 0,0min
07:05 6,6°C 88,0% 4,8°C 1009,2hPa 6,6°C 11,9km/h (2Bft) 5,7km/h 194° (S) 0,0l/m² 0,000klx 0,0min
07:00 6,6°C 88,6% 4,9°C 1009,3hPa 6,6°C 11,5km/h (2Bft) 5,4km/h 191° (S) 0,0l/m² 0,000klx 0,0min
06:55 6,6°C 89,0% 4,9°C 1009,3hPa 6,6°C 11,9km/h (2Bft) 4,9km/h 189° (S) 0,0l/m² 0,000klx 0,0min
06:50 6,5°C 89,5% 4,9°C 1009,4hPa 6,5°C 15,1km/h (3Bft) 6,0km/h 195° (S) 0,0l/m² 0,000klx 0,0min
06:45 6,5°C 89,7% 5,0°C 1009,4hPa 6,5°C 10,1km/h (2Bft) 4,4km/h 184° (S) 0,0l/m² 0,000klx 0,0min
06:40 6,4°C 90,8% 5,0°C 1009,6hPa 6,3°C 16,2km/h (3Bft) 6,6km/h 203° (SW) 0,0l/m² 0,000klx 0,0min
06:35 6,5°C 91,1% 5,1°C 1009,6hPa 6,5°C 9,4km/h (2Bft) 4,2km/h 206° (SW) 0,0l/m² 0,000klx 0,0min
06:30 6,4°C 90,8% 5,0°C 1009,6hPa 6,4°C 8,6km/h (2Bft) 3,8km/h 229° (SW) 0,0l/m² 0,000klx 0,0min
06:25 6,4°C 91,7% 5,1°C 1009,6hPa 6,4°C 15,5km/h (3Bft) 5,2km/h 219° (SW) 0,0l/m² 0,000klx 0,0min
06:20 6,4°C 91,2% 5,1°C 1009,4hPa 6,4°C 12,2km/h (3Bft) 4,6km/h 228° (SW) 0,0l/m² 0,000klx 0,0min
06:15 6,4°C 91,3% 5,0°C 1009,3hPa 6,4°C 7,6km/h (2Bft) 3,3km/h 249° (W) 0,0l/m² 0,000klx 0,0min
06:10 6,3°C 92,2% 5,1°C 1009,2hPa 6,3°C 8,6km/h (2Bft) 3,4km/h 253° (W) 0,0l/m² 0,000klx 0,2min
06:05 6,4°C 90,6% 5,0°C 1009,2hPa 6,4°C 6,1km/h (2Bft) 2,6km/h 284° (W) 0,0l/m² 0,000klx 5,0min
06:00 6,4°C 90,6% 5,0°C 1009,2hPa 6,4°C 7,2km/h (2Bft) 3,0km/h 210° (SW) 0,0l/m² 0,000klx 2,5min
05:55 6,4°C 90,6% 4,9°C 1009,3hPa 6,4°C 8,3km/h (2Bft) 3,9km/h 204° (SW) 0,0l/m² 0,000klx 2,0min
05:50 6,3°C 91,5% 5,1°C 1009,2hPa 6,3°C 5,8km/h (1Bft) 3,0km/h 212° (SW) 0,0l/m² 0,000klx 0,0min
05:45 6,4°C 90,5% 4,9°C 1009,3hPa 6,4°C 4,7km/h (1Bft) 2,3km/h 253° (W) 0,0l/m² 0,000klx 1,5min
05:40 6,5°C 90,1% 4,9°C 1009,3hPa 6,5°C 12,2km/h (3Bft) 4,7km/h 206° (SW) 0,0l/m² 0,000klx 5,0min
05:35 6,5°C 88,9% 4,8°C 1009,2hPa 6,5°C 14,8km/h (3Bft) 6,2km/h 173° (S) 0,0l/m² 0,000klx 5,0min
05:30 6,4°C 90,1% 4,9°C 1009,2hPa 4,9°C 20,2km/h (4Bft) 8,3km/h 193° (S) 0,0l/m² 0,000klx 1,3min
05:25 6,4°C 90,2% 5,0°C 1009,2hPa 6,4°C 13,3km/h (3Bft) 4,9km/h 192° (S) 0,0l/m² 0,000klx 0,0min
05:20 6,4°C 91,2% 5,1°C 1009,2hPa 6,3°C 19,8km/h (3Bft) 6,6km/h 179° (S) 0,0l/m² 0,000klx 2,7min
05:15 6,5°C 91,1% 5,1°C 1009,2hPa 6,5°C 10,8km/h (2Bft) 4,6km/h 170° (S) 0,0l/m² 0,000klx 0,2min
05:10 6,5°C 91,2% 5,1°C 1009,3hPa 6,5°C 13,3km/h (3Bft) 4,9km/h 210° (SW) 0,0l/m² 0,000klx 0,0min
05:05 6,5°C 91,5% 5,2°C 1009,3hPa 6,5°C 15,5km/h (3Bft) 5,6km/h 170° (S) 0,0l/m² 0,000klx 0,0min
05:00 6,6°C 91,2% 5,2°C 1009,3hPa 6,6°C 8,6km/h (2Bft) 3,4km/h 171° (S) 0,0l/m² 0,000klx 0,0min
04:55 6,6°C 91,5% 5,3°C 1009,4hPa 6,6°C 13,0km/h (3Bft) 5,6km/h 179° (S) 0,0l/m² 0,000klx 0,0min
04:50 6,6°C 91,2% 5,3°C 1009,3hPa 6,6°C 17,6km/h (3Bft) 6,0km/h 181° (S) 0,0l/m² 0,000klx 0,0min
04:45 6,6°C 92,1% 5,4°C 1009,5hPa 4,7°C 21,2km/h (4Bft) 8,8km/h 178° (S) 0,0l/m² 0,000klx 0,0min
04:40 6,7°C 92,0% 5,5°C 1009,5hPa 6,7°C 15,1km/h (3Bft) 5,6km/h 222° (SW) 0,0l/m² 0,000klx 0,0min
04:35 6,8°C 91,1% 5,4°C 1009,5hPa 6,8°C 13,0km/h (3Bft) 5,4km/h 190° (S) 0,0l/m² 0,000klx 0,0min
04:30 6,8°C 90,9% 5,4°C 1009,5hPa 6,8°C 13,7km/h (3Bft) 6,3km/h 166° (S) 0,0l/m² 0,000klx 0,0min
04:25 6,7°C 91,7% 5,5°C 1009,5hPa 6,7°C 15,5km/h (3Bft) 5,5km/h 203° (SW) 0,0l/m² 0,000klx 0,0min
04:20 6,8°C 91,3% 5,5°C 1009,5hPa 6,8°C 11,5km/h (2Bft) 4,2km/h 207° (SW) 0,0l/m² 0,000klx 2,3min
04:15 6,7°C 91,4% 5,4°C 1009,5hPa 6,7°C 10,8km/h (2Bft) 5,1km/h 220° (SW) 0,0l/m² 0,000klx 2,5min
04:10 6,7°C 92,2% 5,5°C 1009,4hPa 6,7°C 11,9km/h (2Bft) 4,7km/h 203° (SW) 0,0l/m² 0,000klx 0,0min
04:05 6,8°C 91,6% 5,5°C 1009,2hPa 6,8°C 11,5km/h (2Bft) 4,6km/h 218° (SW) 0,0l/m² 0,000klx 0,0min
04:00 6,8°C 91,5% 5,5°C 1009,2hPa 6,8°C 6,5km/h (2Bft) 3,3km/h 154° (SO) 0,0l/m² 0,000klx 0,0min
03:55 6,8°C 91,2% 5,5°C 1009,3hPa 6,8°C 11,9km/h (2Bft) 5,5km/h 196° (S) 0,0l/m² 0,000klx 0,0min
03:50 6,8°C 91,1% 5,4°C 1009,3hPa 6,8°C 10,8km/h (2Bft) 3,5km/h 176° (S) 0,0l/m² 0,000klx 0,0min
03:45 6,8°C 91,6% 5,5°C 1009,3hPa 6,8°C 11,9km/h (2Bft) 4,5km/h 183° (S) 0,0l/m² 0,000klx 0,0min
03:40 6,7°C 91,9% 5,5°C 1009,4hPa 6,7°C 11,9km/h (2Bft) 5,7km/h 194° (S) 0,0l/m² 0,000klx 0,0min
03:35 6,7°C 92,4% 5,6°C 1009,3hPa 6,7°C 9,7km/h (2Bft) 4,4km/h 158° (S) 0,0l/m² 0,000klx 0,0min
03:30 6,8°C 91,9% 5,5°C 1009,4hPa 6,8°C 13,3km/h (3Bft) 6,0km/h 186° (S) 0,0l/m² 0,000klx 0,0min
03:25 6,8°C 92,1% 5,6°C 1009,4hPa 6,8°C 20,5km/h (4Bft) 5,4km/h 206° (SW) 0,0l/m² 0,000klx 0,0min
03:20 6,8°C 92,1% 5,6°C 1009,4hPa 6,8°C 12,2km/h (3Bft) 6,3km/h 196° (S) 0,0l/m² 0,000klx 0,0min
03:15 6,9°C 91,9% 5,6°C 1009,6hPa 6,9°C 15,1km/h (3Bft) 6,3km/h 184° (S) 0,0l/m² 0,000klx 0,0min
03:10 6,8°C 92,8% 5,7°C 1009,6hPa 5,6°C 16,6km/h (3Bft) 7,9km/h 182° (S) 0,0l/m² 0,000klx 0,0min
03:05 6,9°C 93,2% 5,8°C 1009,6hPa 6,9°C 18,4km/h (3Bft) 6,1km/h 175° (S) 0,0l/m² 0,000klx 0,0min
03:00 6,8°C 93,1% 5,8°C 1009,7hPa 6,2°C 14,8km/h (3Bft) 7,2km/h 171° (S) 0,0l/m² 0,000klx 3,7min
02:55 6,7°C 93,8% 5,8°C 1009,7hPa 4,4°C 20,5km/h (4Bft) 9,4km/h 185° (S) 0,0l/m² 0,000klx 5,0min
02:50 6,7°C 93,7% 5,8°C 1009,8hPa 6,7°C 10,8km/h (2Bft) 4,9km/h 148° (SO) 0,0l/m² 0,000klx 5,0min
02:45 6,7°C 93,7% 5,8°C 1009,9hPa 6,7°C 11,5km/h (2Bft) 4,4km/h 185° (S) 0,0l/m² 0,000klx 5,0min
02:40 6,7°C 93,7% 5,7°C 1009,9hPa 6,7°C 10,4km/h (2Bft) 4,7km/h 199° (S) 0,1l/m² 0,000klx 5,0min
02:35 6,7°C 93,3% 5,6°C 1009,9hPa 6,7°C 8,3km/h (2Bft) 4,0km/h 188° (S) 0,0l/m² 0,000klx 5,0min
02:30 6,6°C 93,2% 5,6°C 1009,8hPa 6,6°C 12,6km/h (3Bft) 5,4km/h 183° (S) 0,0l/m² 0,000klx 5,0min
02:25 6,6°C 93,3% 5,5°C 1009,9hPa 3,4°C 23,0km/h (4Bft) 10,7km/h 180° (S) 0,0l/m² 0,000klx 5,0min
02:20 6,6°C 92,8% 5,5°C 1009,9hPa 6,5°C 16,6km/h (3Bft) 6,5km/h 190° (S) 0,0l/m² 0,000klx 5,0min
02:15 6,6°C 92,6% 5,4°C 1009,9hPa 5,2°C 18,4km/h (3Bft) 8,1km/h 196° (S) 0,1l/m² 0,000klx 5,0min
02:10 6,5°C 92,7% 5,4°C 1010,0hPa 4,9°C 18,7km/h (3Bft) 8,4km/h 188° (S) 0,0l/m² 0,000klx 5,0min
02:05 6,5°C 92,2% 5,4°C 1010,1hPa 5,5°C 15,8km/h (3Bft) 7,7km/h 178° (S) 0,1l/m² 0,000klx 5,0min
02:00 6,5°C 92,4% 5,4°C 1010,2hPa 4,5°C 21,2km/h (4Bft) 9,0km/h 173° (S) 0,0l/m² 0,000klx 5,0min
01:55 6,5°C 92,6% 5,4°C 1010,4hPa 4,8°C 20,5km/h (4Bft) 8,6km/h 186° (S) 0,1l/m² 0,000klx 5,0min
01:50 6,5°C 92,6% 5,4°C 1010,4hPa 4,9°C 17,3km/h (3Bft) 8,4km/h 187° (S) 0,0l/m² 0,000klx 5,0min
01:45 6,5°C 93,1% 5,4°C 1010,5hPa 5,9°C 17,3km/h (3Bft) 7,1km/h 202° (S) 0,0l/m² 0,000klx 5,0min
01:40 6,5°C 93,1% 5,4°C 1010,5hPa 6,3°C 16,9km/h (3Bft) 6,6km/h 199° (S) 0,0l/m² 0,000klx 5,0min
01:35 6,5°C 92,9% 5,4°C 1010,6hPa 6,5°C 13,0km/h (3Bft) 5,8km/h 199° (S) 0,0l/m² 0,000klx 5,0min
01:30 6,5°C 92,5% 5,4°C 1010,5hPa 4,4°C 20,5km/h (4Bft) 9,1km/h 187° (S) 0,0l/m² 0,000klx 5,0min
01:25 6,4°C 92,5% 5,3°C 1010,5hPa 4,0°C 18,4km/h (3Bft) 9,6km/h 191° (S) 0,0l/m² 0,000klx 5,0min
01:20 6,4°C 92,6% 5,3°C 1010,5hPa 5,2°C 16,6km/h (3Bft) 7,8km/h 180° (S) 0,0l/m² 0,000klx 5,0min
01:15 6,3°C 92,6% 5,2°C 1010,5hPa 4,3°C 20,5km/h (4Bft) 9,0km/h 178° (S) 0,0l/m² 0,000klx 5,0min
01:10 6,3°C 92,5% 5,2°C 1010,5hPa 4,8°C 20,5km/h (4Bft) 8,3km/h 187° (S) 0,0l/m² 0,000klx 5,0min
01:05 6,3°C 92,4% 5,1°C 1010,6hPa 5,3°C 19,1km/h (3Bft) 7,6km/h 182° (S) 0,1l/m² 0,000klx 5,0min
01:00 6,2°C 92,7% 5,1°C 1010,8hPa 6,2°C 10,4km/h (2Bft) 4,6km/h 199° (S) 0,1l/m² 0,000klx 5,0min
00:55 6,3°C 92,1% 5,1°C 1010,9hPa 6,3°C 9,7km/h (2Bft) 5,2km/h 208° (SW) 0,1l/m² 0,000klx 5,0min
00:50 6,3°C 91,8% 5,0°C 1010,9hPa 5,4°C 16,6km/h (3Bft) 7,4km/h 191° (S) 0,1l/m² 0,000klx 5,0min
00:45 6,3°C 91,6% 5,0°C 1011,0hPa 5,6°C 17,3km/h (3Bft) 7,2km/h 188° (S) 0,1l/m² 0,000klx 5,0min
00:40 6,3°C 91,4% 5,0°C 1011,0hPa 4,3°C 19,4km/h (3Bft) 8,9km/h 189° (S) 0,1l/m² 0,000klx 5,0min
00:35 6,3°C 91,4% 4,9°C 1011,0hPa 2,5°C 26,3km/h (4Bft) 11,5km/h 189° (S) 0,1l/m² 0,000klx 5,0min
00:30 6,3°C 91,2% 4,9°C 1011,1hPa 5,4°C 23,4km/h (4Bft) 7,4km/h 185° (S) 0,1l/m² 0,000klx 5,0min
00:25 6,3°C 90,5% 4,8°C 1011,2hPa 3,3°C 25,9km/h (4Bft) 10,4km/h 179° (S) 0,1l/m² 0,000klx 5,0min
00:20 6,4°C 89,9% 4,8°C 1011,2hPa 3,2°C 25,2km/h (4Bft) 10,6km/h 191° (S) 0,2l/m² 0,000klx 5,0min
00:15 6,4°C 88,9% 4,7°C 1011,3hPa 3,3°C 23,8km/h (4Bft) 10,6km/h 184° (S) 0,2l/m² 0,000klx 5,0min
00:10 6,6°C 87,1% 4,6°C 1011,5hPa 4,1°C 25,2km/h (4Bft) 9,7km/h 185° (S) 0,2l/m² 0,000klx 5,0min
00:05 6,8°C 84,8% 4,4°C 1011,5hPa 4,3°C 21,2km/h (4Bft) 9,7km/h 190° (S) 0,1l/m² 0,000klx 5,0min
00:00 6,9°C 83,4% 4,3°C 1011,6hPa 4,5°C 18,7km/h (3Bft) 9,5km/h 189° (S) 0,0l/m² 0,000klx 5,0min

Aktuelle Wetterdaten

28.11.2022 22:30 Uhr